GOES 11 [-]

Last updated on Jan. 18, 2020, 4:37 a.m. UTC

1 26352U 00022A   20017.53825000 -.00000161  00000-0  00000-0 0  9994
2 26352   6.8555  66.1038 0005325 223.8704 130.2156  0.99041714 29266
UTC
Height (km)
Latitude
Longitude
Inclination
Orbital Period
UTC large
Height (km)
Speed (km/s)
/
Latitude / Longitude
Inclination (degrees)
Orbital Period (minutes)
Azimuth
Elevation
Range (km)
Doppler Factor
iOS Compass Heading
iOS Angle

Next 30 passes for location: Hong Kong

Rise time Rise Azimuth (degrees) Set time Set Azimuth (degrees) Duration Max altitude (degrees)

No matching passes for this satellites